Weather in Zelmeni

Latvia     56°27′01″N   23°21′28″E
temp.,
°C
wind,
m/s
gust,
m/s
humid.,
%
clouds,
%
prec.,
mm/h
press.,
hPa
HPBL,
m
18 april, sun
sun1800:00+9ne248358 0.0 102356
03:00+8ne25895 0.0 102392
06:00+7nne259395 0.0 102396
09:00+10ne3679100 0.0 1023290
12:00+15ene465381 0.0 1023926
15:00+18e464028 0.0 10221494
18:00+17ne354616 0.0 10221931
21:00+10ne23630 0.0 102348
19 april, mon
mon1900:00+8ene310690 0.0 1025222
03:00+6ne24710 0.0 102583
06:00+5ne23760 0.0 102560
09:00+8ene36641 0.0 1025354
12:00+13e46505 0.0 10241177
15:00+15e463880 0.0 10242359
18:00+15ese244392 0.0 10231912
21:00+11nnw116399 0.0 102317
20 april, tue
tue2000:00+10e256894 0.0 1023123
03:00+7ene227798 0.0 102251
06:00+6e228595 0.0 102236
09:00+8ene2375100 0.0 1021238
12:00+12ne2355100 0.1 10191523
15:00+12nne2347100 0.3 10171582
18:00+10ene346493 0.1 1016968
21:00+8ne237025 0.1 101571
21 april, wed
wed2100:00+4nne237667 0.0 101456
03:00+3n22755 0.0 101325
06:00+2nnw22785 0.0 101117
09:00+7nw24595 0.0 1010342
12:00+11nw244675 0.0 10081834
15:00+13w463699 0.0 10062399
18:00+13w464882 0.0 10061801
21:00+8wsw387682 0.3 1006205
22 april, thu
thu2200:00+5sw39855 0.0 1006275
03:00+4sw4984100 0.0 1006474
06:00+4ssw389099 0.4 1006491
09:00+6ssw46765 0.4 1006705
12:00+9ssw565089 0.4 10061872
15:00+9ssw5652100 1.4 10071779
18:00+7ssw466898 1.1 10081358
21:00+5wsw228097 1.3 100859